Location: Stamford Observatory
(41.1241°N, 73.5498°W)
Time: 12:56:47
(UTC-05:00)

Daily predictions for brighter satellites

Satellite Brightness Start Highest point End
(mag) Time Altitude Azimuth Time Altitude Azimuth Time Altitude Azimuth
CZ-3A R/B 3.2 16:47:39 10° WSW 16:51:37 67° NNW 17:11:04 10° NE
SPOT 3 Rocket 3.8 16:49:35 10° SE 16:54:31 46° ENE 16:59:27 10° N
OTV 4 3.3 16:57:32 10° WSW 16:59:34 17° SSW 17:01:34 10° SSE
CSL-04 Rocket 4.4 16:54:41 10° S 17:00:04 60° WSW 17:05:32 10° NNW
Ariane Rocket 4.3 16:56:15 10° S 17:01:06 45° W 17:05:58 10° NNW
ATLAS 2AS CENTAUR R/B 3.0 16:54:22 10° NNW 17:02:29 72° NE 17:10:02 10° SE
SMAP 3.2 16:58:03 10° SSE 17:02:32 50° ENE 17:07:03 10° N
Cosmos 2341 Rocket 4.4 16:58:06 10° NNW 17:04:16 70° W 17:10:26 10° S
USA 32 4.1 16:59:58 10° S 17:05:06 63° E 17:10:16 10° N
COSMOS 2487 4.1 17:03:14 10° NNE 17:05:35 16° ENE 17:07:55 10° ESE
Cosmos 494 Rocket 4.1 17:01:46 10° N 17:06:54 53° ENE 17:12:02 10° SE
OPS 8737 4.2 17:06:36 10° SSW 17:09:57 73° ESE 17:13:07 10° NE
BREEZE-M DEB (TANK) 2.8 17:10:00 10° W 17:12:06 30° NNW 17:13:58 12° NE
Cosmos 1844 Rocket 3.0 17:08:19 10° SSW 17:13:52 69° WNW 17:19:30 10° NNE
Cosmos 1238 Rocket 2.1 17:12:32 10° S 17:15:25 55° E 17:18:26 10° NNE
Cosmos 1544 Rocket 3.5 17:12:14 10° N 17:16:42 77° E 17:21:10 10° SSE
IDEFIX/ARIANE 42P 2.5 17:11:56 10° SSE 17:17:06 72° ENE 17:22:16 10° N
SL-8 R/B 3.7 17:13:48 10° SW 17:18:34 79° SSE 17:22:40 14° ENE
Cosmos 1812 2.7 17:14:52 10° S 17:18:39 60° E 17:22:29 10° NNE
COSMO-SKYMED 1 3.6 17:15:52 10° NE 17:19:33 26° E 17:23:12 10° SSE
Cosmos 1975 Rocket 4.2 17:16:27 10° SSW 17:20:36 46° WNW 17:24:47 10° N
CZ-2C R/B 2.4 17:16:40 10° SSE 17:21:38 81° ENE 17:26:47 10° N
USA 116 4.5 17:16:22 10° NNE 17:21:48 87° ESE 17:26:57 10° SSW
Okean 1 3.6 17:18:42 10° SSE 17:22:34 46° E 17:26:29 10° NNE
Meteor 1-18 Rocket 4.2 17:17:03 10° S 17:22:38 69° E 17:28:22 10° NNE
CRYOSAT 2 4.5 17:18:37 10° N 17:23:33 84° W 17:28:26 10° S
Intercosmos 25 4.5 17:23:26 10° NNE 17:26:12 16° E 17:27:52 10° ESE
SJ-7 4.4 17:23:12 10° SSE 17:27:25 81° ENE 17:31:41 10° N
CORIOLIS 4.1 17:22:15 10° SSE 17:27:40 80° ENE 17:33:04 10° NNW
Cosmos 864 Rocket 4.5 17:22:10 10° N 17:28:28 76° E 17:34:47 10° SSE
Nadezhda 3 Rocket 4.4 17:24:06 10° SSE 17:29:47 39° E 17:35:31 10° NNE
Thor Agena Rocket 3.6 17:25:21 10° NNE 17:30:35 85° WNW 17:35:51 10° SSW
COSMOS 2441 4.5 17:26:28 10° SSE 17:31:11 53° ENE 17:35:57 10° N
Cosmos 1844 4.1 17:28:23 10° SW 17:33:54 64° WNW 17:39:26 10° NNE
Cosmos 1346 Rocket 3.1 17:32:20 10° SSE 17:36:03 43° E 17:39:20 13° NNE
Cosmos 2297 4.2 17:31:33 10° S 17:36:44 39° ESE 17:40:46 16° NE
Cosmos 1536 Rocket 3.5 17:32:41 10° S 17:37:08 81° E 17:41:38 10° N
CZ-4 R/B 4.4 17:34:59 10° SSE 17:39:08 86° ENE 17:43:19 10° NNW
Cosmos 2251 Rocket 3.9 17:34:48 10° NNW 17:40:07 68° WSW 17:45:23 10° S
YAOGAN 1 3.1 17:41:03 10° S 17:45:19 60° W 17:49:38 10° NNW
Cosmos 1025 Rocket 4.3 17:42:02 10° SE 17:45:00 21° E 17:45:00 21° E
NOSS 2-1 (D) 4.3 17:45:47 10° S 17:49:06 28° ESE 17:49:49 27° E
OE (NEXTSAT) 4.3 17:45:34 10° WSW 17:49:09 80° SSE 17:50:36 34° ENE
Cosmos 921 Rocket 3.6 17:45:18 10° SSE 17:49:09 35° E 17:50:39 27° ENE
Cosmos 2278 Rocket 2.3 17:44:05 10° SSW 17:49:44 78° WNW 17:55:26 10° NNE
NOSS 2-1 (C) 4.3 17:46:29 10° S 17:49:48 28° ESE 17:50:28 27° E
Tiangong 1 1.5 17:49:10 10° SW 17:52:04 44° SSE 17:52:44 37° ESE
NOAA 12 4.4 17:55:30 10° SE 18:00:26 43° ENE 18:05:24 10° N
MSX 4.1 17:55:08 10° S 18:00:52 72° WSW 18:06:38 10° NNW
CZ-4 R/B 3.9 18:00:01 10° SSW 18:03:29 25° W 18:06:56 10° NW
FALCON 9 R/B 4.0 17:39:10 10° WSW 18:05:55 59° S 18:10:58 23° ESE
Genesis I 3.1 18:03:05 10° NW 18:07:02 84° WSW 18:10:38 12° SSE
Meteor 1-19 Rocket 4.3 18:01:40 10° S 18:07:19 58° E 18:12:41 12° NNE
SKYMED 2 3.5 18:03:45 12° NNE 18:07:47 90° WNW 18:12:07 10° SSW
NOSS 2-1 (E) 3.8 18:04:40 10° S 18:08:18 41° ESE 18:08:29 41° ESE
Cosmos 1975 3.7 18:04:34 10° NNW 18:08:32 51° W 18:12:27 10° S
METEOR-M 4.3 18:07:08 10° SE 18:12:13 47° ENE 18:17:19 10° N
Cosmos 1833 Rocket 2.7 18:09:15 10° NNW 18:14:50 58° ENE 18:20:03 12° SE
Okean 1-7 Rocket 3.5 18:10:21 10° S 18:14:51 75° E 18:17:21 26° NNE
Cosmos 2082 Rocket 2.1 18:09:43 10° NNW 18:15:23 70° ENE 18:21:03 10° SSE
Delta 2 Rocket 4.4 18:12:56 10° SW 18:16:25 32° SSE 18:17:08 30° SE
Cosmos 1743 2.5 18:15:14 10° N 18:19:08 79° E 18:22:59 10° S
Cosmos 1484 Rocket 3.5 18:16:19 10° S 18:19:57 50° W 18:23:37 10° NNW
USA 234 4.1 18:19:23 20° NNE 18:23:28 40° NNW 18:29:27 10° W
Cosmos 1934 Rocket 4.0 18:18:11 10° N 18:24:16 55° E 18:30:25 10° SSE
ISS -0.8 18:23:29 10° NW 18:25:01 15° NNW 18:25:01 15° NNW
Cosmos 1535 Rocket 4.4 18:19:25 10° N 18:25:45 72° E 18:31:56 10° SSE
Meteor 1-13 Rocket 4.3 18:20:14 10° SSW 18:25:54 80° W 18:31:45 10° N
Cosmos 2056 Rocket 4.0 18:22:04 10° S 18:26:34 42° ESE 18:26:34 42° ESE
Meteor 1-28 Rocket 3.2 18:30:41 77° NW 18:30:50 80° WNW 18:34:37 10° SSW
GEOS 3 Rocket 3.4 18:30:08 30° SE 18:32:47 87° NE 18:37:56 10° NW
BREEZE M DEB (TANK) 3.7 18:31:20 10° NW 18:35:16 58° NNE 18:37:40 42° E
Meteor 1-23 Rocket 4.1 18:29:42 10° S 18:35:20 62° E 18:36:19 54° NE
NOSS 3-4 (A) 3.9 18:31:24 10° NNW 18:38:15 54° NE 18:39:37 48° E
NOSS 3-4 (C) 3.9 18:31:30 10° NNW 18:38:21 54° NE 18:39:40 48° E
Cosmos 1624 Rocket 4.1 18:35:36 10° S 18:40:06 57° SE 18:40:06 57° SE
Timation 2 Rocket 4.4 18:34:01 10° NNW 18:40:50 71° WSW 18:47:40 10° SSE
COSMOS 2487 4.4 18:38:00 10° NW 18:41:11 30° WSW 18:44:20 10° SSW
Cosmos 2239 Rocket 4.4 18:35:01 10° N 18:41:14 85° W 18:47:23 10° S
CZ-3B DEB 3.6 18:38:40 10° W 18:43:22 43° NNW 18:47:51 28° NE
Cosmos 1371 Rocket 3.9 18:40:04 10° SSW 18:45:25 85° ESE 18:46:00 72° NE
Meteor 2-8 Rocket 4.3 18:40:42 10° S 18:46:44 74° E 18:48:17 51° NNE
Meteor 2-4 Rocket 3.5 18:42:08 10° S 18:47:32 89° W 18:48:44 56° N
ATLAS 3B CENTAUR R/B 4.1 18:33:35 10° WSW 18:49:44 39° SSW 18:53:40 25° SE
Cosmos 1821 Rocket 4.0 18:45:19 10° N 18:51:24 74° W 18:57:27 10° S
Meteor 2-9 Rocket 3.9 18:46:46 10° N 18:52:15 88° E 18:57:35 10° S
Cosmos 1605 Rocket 4.4 18:55:35 10° N 19:08:52 - SSE 19:00:07 49° N
